North Andover, MA

2:00 AM EST on February 25, 2017 (GMT -0500)
Lawrence Municipal

Weather History for KLWM - January, 2013

Change the Weather History Date:

Tuesday, January 29, 2013

  Actual Average Record
Temperature  
Mean Temperature 30 °F -  
Max Temperature 36 °F 34 °F 60 °F (2002)
Min Temperature 24 °F 17 °F -6 °F (1934)
Degree Days  
Heating Degree Days 35    
Moisture  
Dew Point 24 °F    
Average Humidity 81    
Maximum Humidity 89    
Minimum Humidity 70    
Precipitation  
Precipitation 0.02 in - - ()
Sea Level Pressure  
Sea Level Pressure 30.14 in    
Wind  
Wind Speed 3 mph (North)    
Max Wind Speed 8 mph    
Max Gust Speed -    
Visibility 8 miles    
Events Rain , Snow    
Averages and records for this station are not official NWS values.
T = Trace of Precipitation, MM = Missing Value Source: NWS Daily Summary

Daily Weather History Graph

Daily Weather History Graph

Search for Another Location

Airport or City:

Trip Planner

Search our weather history database for the weather conditions in past years. The results will help you decide how hot, cold, wet, or windy it might be!

Date:

Astronomy

Jan. 29, 2013 Rise Set
Actual Time 7:01 AM EST 4:54 PM EST
Civil Twilight 6:31 AM EST 5:24 PM EST
Nautical Twilight 5:57 AM EST 5:58 PM EST
Astronomical Twilight 5:24 AM EST 6:31 PM EST
Moon 7:52 PM EST (1/29) 7:52 AM EST (1/29)
Length of Visible Light 10h 52m
Length of Day
9h 52m
Waning Gibbous, 94% of the Moon is Illuminated
Jan 29
Waning Gibbous
Feb 3
Last Quarter
Feb 10
New
Feb 17
First Quarter
Feb 25
Full

Hourly Weather History & Observations

Time (EST) Temp. Windchill Dew Point Humidity Pressure Visibility Wind Dir Wind Speed Gust Speed Precip Events Conditions
12:24 AM 24.8 °F 19.1 °F 21.2 °F 86% 30.05 in 3.0 mi North 4.6 mph - 0.00 in Snow Light Snow
12:37 AM 24.8 °F 17.9 °F 21.2 °F 86% 30.04 in 2.5 mi North 5.8 mph - 0.00 in Snow Light Snow
12:54 AM 25.0 °F 18.1 °F 21.0 °F 85% 30.05 in 3.0 mi North 5.8 mph - 0.01 in Snow Light Snow
12:58 AM 24.8 °F 17.9 °F 21.2 °F 86% 30.05 in 2.5 mi North 5.8 mph - 0.00 in Snow Light Snow
1:46 AM 24.8 °F 20.5 °F 21.2 °F 86% 30.06 in 2.5 mi North 3.5 mph - 0.00 in Snow Light Snow
1:54 AM 25.0 °F 20.7 °F 21.0 °F 85% 30.06 in 2.5 mi North 3.5 mph - 0.01 in Snow Light Snow
2:06 AM 24.8 °F - 21.2 °F 86% 30.06 in 4.0 mi Calm Calm - 0.00 in   Overcast
2:18 AM 24.8 °F 20.5 °F 21.2 °F 86% 30.06 in 2.5 mi North 3.5 mph - 0.00 in Snow Light Snow
2:50 AM 24.8 °F 17.9 °F 21.2 °F 86% 30.07 in 3.0 mi North 5.8 mph - 0.00 in Snow Light Snow
2:54 AM 25.0 °F 17.1 °F 21.0 °F 85% 30.08 in 3.0 mi North 6.9 mph - 0.00 in   Overcast
3:07 AM 24.8 °F 16.1 °F 21.2 °F 86% 30.07 in 6.0 mi North 8.1 mph - N/A   Overcast
3:54 AM 25.0 °F 19.3 °F 21.0 °F 85% 30.08 in 8.0 mi NNE 4.6 mph - 0.00 in   Overcast
4:03 AM 24.8 °F 20.5 °F 21.2 °F 86% 30.08 in 10.0 mi North 3.5 mph - N/A   Overcast
4:31 AM 26.6 °F 18.2 °F 21.2 °F 80% 30.09 in 10.0 mi North 8.1 mph - N/A   Overcast
4:54 AM 26.1 °F 20.5 °F 21.0 °F 81% 30.10 in 10.0 mi North 4.6 mph - N/A   Overcast
5:54 AM 26.1 °F 19.4 °F 21.0 °F 81% 30.12 in 10.0 mi North 5.8 mph - N/A   Overcast
6:07 AM 26.6 °F 22.6 °F 21.2 °F 80% 30.11 in 10.0 mi NNW 3.5 mph - N/A   Overcast
6:54 AM 26.6 °F 22.6 °F 21.2 °F 80% 30.13 in 10.0 mi North 3.5 mph - N/A   Overcast
7:54 AM 27.0 °F 23.0 °F 21.0 °F 78% 30.16 in 10.0 mi NNW 3.5 mph - N/A   Overcast
8:09 AM 26.6 °F 22.6 °F 21.2 °F 80% 30.16 in 10.0 mi North 3.5 mph - N/A   Overcast
8:54 AM 28.0 °F 24.2 °F 21.9 °F 78% 30.18 in 10.0 mi NNW 3.5 mph - N/A   Overcast
9:30 AM 28.4 °F - 23.0 °F 80% 30.18 in 10.0 mi Calm Calm - N/A   Overcast
9:54 AM 30.0 °F - 23.0 °F 75% 30.19 in 10.0 mi Calm Calm - N/A   Overcast
10:54 AM 30.9 °F - 24.1 °F 76% 30.21 in 10.0 mi Calm Calm - N/A   Overcast
11:54 AM 32.0 °F 27.5 °F 25.0 °F 75% 30.20 in 10.0 mi NNE 4.6 mph - N/A   Overcast
12:54 PM 33.1 °F - 25.0 °F 72% 30.19 in 10.0 mi Calm Calm - N/A   Overcast
1:54 PM 34.0 °F - 26.1 °F 73% 30.17 in 10.0 mi Calm Calm - N/A   Overcast
2:54 PM 35.1 °F - 26.1 °F 70% 30.18 in 10.0 mi Calm Calm - N/A   Overcast
3:54 PM 36.0 °F - 27.0 °F 70% 30.19 in 10.0 mi Calm Calm - N/A   Overcast
4:54 PM 35.1 °F - 28.0 °F 76% 30.20 in 10.0 mi Calm Calm - N/A   Overcast
5:17 PM 35.6 °F - 26.6 °F 70% 30.18 in 10.0 mi Calm Calm - N/A   Overcast
5:54 PM 35.1 °F - 28.0 °F 76% 30.19 in 10.0 mi Calm Calm - N/A   Overcast
6:54 PM 35.1 °F - 28.0 °F 76% 30.20 in 10.0 mi Calm Calm - N/A   Overcast
7:18 PM 35.6 °F - 28.4 °F 75% 30.19 in 10.0 mi Calm Calm - N/A   Overcast
7:54 PM 35.1 °F - 28.0 °F 76% 30.19 in 10.0 mi Calm Calm - N/A   Overcast
8:54 PM 35.1 °F - 28.9 °F 78% 30.20 in 10.0 mi Calm Calm - N/A   Overcast
9:54 PM 34.0 °F - 30.0 °F 85% 30.20 in 4.0 mi Calm Calm - 0.00 in   Overcast
10:29 PM 33.8 °F - 30.2 °F 87% 30.17 in 6.0 mi Calm Calm - N/A   Overcast
10:54 PM 34.0 °F - 30.0 °F 85% 30.18 in 5.0 mi Calm Calm - N/A   Overcast
11:41 PM 33.8 °F - 30.2 °F 87% 30.16 in 5.0 mi Calm Calm - 0.00 in Rain Light Rain
11:54 PM 34.0 °F - 30.9 °F 89% 30.17 in 4.0 mi Calm Calm - 0.00 in   Overcast